Oxford, MS

4:18 PM CDT on September 21, 2019 (GMT -0500)
University-Oxford

Weather History for KUOX - July, 2019

Change the Weather History Date:

Wednesday, July 31, 2019

  Actual Average Record
Temperature  
Mean Temperature 79 °F -  
Max Temperature 89 °F 90 °F 104 °F (1986)
Min Temperature 69 °F 67 °F 52 °F (1971)
Cooling Degree Days 14    
Growing Degree Days 29 (Base 50)    
Moisture  
Dew Point 70 °F    
Average Humidity 77    
Maximum Humidity 100    
Minimum Humidity 43    
Precipitation  
Precipitation 0.00 in - - ()
Sea Level Pressure  
Sea Level Pressure 30.07 in    
Wind  
Wind Speed 2 mph ()    
Max Wind Speed 12 mph    
Max Gust Speed 16 mph    
Visibility 8.8 miles    
Events      
Averages and records for this station are not official NWS values.
T = Trace of Precipitation, MM = Missing Value Source: Averaged Metar Reports

Daily Weather History Graph

Daily Weather History Graph

Search for Another Location

Airport or City:

Astronomy

Jul. 31, 2019 Rise Set
Actual Time 6:07 AM CDT 8:00 PM CDT
Civil Twilight 5:40 AM CDT 8:28 PM CDT
Nautical Twilight 5:06 AM CDT 9:01 PM CDT
Astronomical Twilight 4:31 AM CDT 9:37 PM CDT
Moon 5:23 AM CDT (7/31) 7:58 PM CDT (7/31)
Length of Visible Light 14h 47m
Length of Day
13h 52m
Waning Crescent, 0% of the Moon is Illuminated
Jul 31
Waning Crescent
Jul 31
New
Aug 7
First Quarter
Aug 15
Full
Aug 23
Last Quarter

Hourly Weather History & Observations

Time (CDT) Temp. Heat Index Dew Point Humidity Pressure Visibility Wind Dir Wind Speed Gust Speed Precip Events Conditions
12:15 AM 73.4 °F - 71.6 °F 94% 30.05 in 7.0 mi Calm Calm - N/A   Clear
12:35 AM 73.4 °F - 71.6 °F 94% 30.06 in 9.0 mi Calm Calm - N/A   Clear
12:55 AM 71.6 °F - 71.6 °F 100% 30.05 in 7.0 mi Calm Calm - N/A   Clear
1:15 AM 71.6 °F - 71.6 °F 100% 30.05 in 9.0 mi Calm Calm - N/A   Clear
1:35 AM 71.6 °F - 71.6 °F 100% 30.05 in 9.0 mi Calm Calm - N/A   Clear
1:55 AM 71.6 °F - 71.6 °F 100% 30.05 in 8.0 mi Calm Calm - N/A   Clear
2:55 AM 71.6 °F - 71.6 °F 100% 30.04 in 8.0 mi Calm Calm - N/A   Clear
3:15 AM 71.6 °F - 71.6 °F 100% 30.04 in 7.0 mi Calm Calm - N/A   Clear
3:35 AM 71.6 °F - 71.6 °F 100% 30.04 in 8.0 mi Calm Calm - N/A   Clear
3:55 AM 69.8 °F - 69.8 °F 100% 30.04 in 6.0 mi Calm Calm - N/A   Clear
4:15 AM 69.8 °F - 69.8 °F 100% 30.05 in 7.0 mi Calm Calm - N/A   Clear
4:35 AM 69.8 °F - 69.8 °F 100% 30.05 in 8.0 mi Calm Calm - N/A   Partly Cloudy
4:55 AM 69.8 °F - 69.8 °F 100% 30.05 in 9.0 mi Calm Calm - N/A   Mostly Cloudy
5:15 AM 69.8 °F - 69.8 °F 100% 30.05 in 6.0 mi Calm Calm - N/A   Mostly Cloudy
5:35 AM 69.8 °F - 69.8 °F 100% 30.06 in 6.0 mi Calm Calm - N/A   Partly Cloudy
5:55 AM 69.8 °F - 69.8 °F 100% 30.07 in 7.0 mi Calm Calm - N/A   Clear
6:15 AM 69.8 °F - 69.8 °F 100% 30.07 in 5.0 mi Calm Calm - N/A   Scattered Clouds
6:35 AM 69.8 °F - 69.8 °F 100% 30.08 in 4.0 mi Calm Calm - N/A   Partly Cloudy
6:55 AM 69.8 °F - 69.8 °F 100% 30.09 in 7.0 mi Calm Calm - N/A   Clear
7:15 AM 71.6 °F - 71.6 °F 100% 30.09 in 6.0 mi Calm Calm - N/A   Partly Cloudy
7:35 AM 71.6 °F - 71.6 °F 100% 30.10 in 7.0 mi Calm Calm - N/A   Clear
7:55 AM 73.4 °F - 73.4 °F 100% 30.10 in 7.0 mi Calm Calm - N/A   Clear
8:15 AM 75.2 °F - 75.2 °F 100% 30.10 in 7.0 mi ENE 4.6 mph - N/A   Clear
8:35 AM 77.0 °F - 73.4 °F 89% 30.11 in 8.0 mi NE 4.6 mph - N/A   Clear
8:55 AM 78.8 °F - 73.4 °F 83% 30.11 in 8.0 mi NNE 4.6 mph - N/A   Scattered Clouds
9:35 AM 78.8 °F - 73.4 °F 83% 30.11 in 9.0 mi Variable 4.6 mph - N/A   Mostly Cloudy
9:55 AM 80.6 °F 85.4 °F 73.4 °F 79% 30.12 in 10.0 mi NE 4.6 mph - N/A   Overcast
10:15 AM 82.4 °F 88.2 °F 73.4 °F 74% 30.12 in 9.0 mi Variable 5.8 mph - N/A   Overcast
10:35 AM 82.4 °F 87.2 °F 71.6 °F 70% 30.11 in 9.0 mi Calm Calm - N/A   Mostly Cloudy
10:55 AM 84.2 °F 89.6 °F 71.6 °F 66% 30.11 in 9.0 mi NW 4.6 mph - N/A   Mostly Cloudy
11:15 AM 84.2 °F 89.6 °F 71.6 °F 66% 30.11 in 9.0 mi Calm Calm - N/A   Scattered Clouds
11:35 AM 84.2 °F 88.4 °F 69.8 °F 62% 30.11 in 10.0 mi Calm Calm - N/A   Clear
11:55 AM 84.2 °F 89.6 °F 71.6 °F 66% 30.11 in 10.0 mi NNE 5.8 mph - N/A   Partly Cloudy
12:15 PM 86.0 °F 90.4 °F 69.8 °F 58% 30.10 in 10.0 mi Variable 5.8 mph - N/A   Partly Cloudy
12:35 PM 86.0 °F 90.4 °F 69.8 °F 58% 30.10 in 9.0 mi NNW 5.8 mph - N/A   Scattered Clouds
12:55 PM 87.8 °F 91.4 °F 68.0 °F 52% 30.09 in 9.0 mi Calm Calm - N/A   Partly Cloudy
1:15 PM 89.6 °F 96.2 °F 71.6 °F 55% 30.09 in 9.0 mi Variable 6.9 mph - N/A   Clear
1:35 PM 87.8 °F 93.8 °F 71.6 °F 58% 30.08 in 9.0 mi Variable 5.8 mph - N/A   Scattered Clouds
1:55 PM 86.0 °F 90.4 °F 69.8 °F 58% 30.08 in 10.0 mi North 11.5 mph - N/A   Scattered Clouds
2:15 PM 87.8 °F 91.4 °F 68.0 °F 52% 30.08 in 10.0 mi NNW 11.5 mph - N/A   Partly Cloudy
2:35 PM 89.6 °F 93.4 °F 68.0 °F 49% 30.07 in 10.0 mi NNW 10.4 mph 16.1 mph N/A   Clear
2:55 PM 89.6 °F 93.4 °F 68.0 °F 49% 30.06 in 9.0 mi NNW 9.2 mph - N/A   Clear
3:15 PM 89.6 °F 93.4 °F 68.0 °F 49% 30.06 in 9.0 mi North 8.1 mph - N/A   Clear
3:35 PM 87.8 °F 90.4 °F 66.2 °F 49% 30.05 in 9.0 mi NNE 9.2 mph - N/A   Partly Cloudy
3:55 PM 89.6 °F 92.2 °F 66.2 °F 46% 30.05 in 10.0 mi NNW 9.2 mph - N/A   Partly Cloudy
4:15 PM 89.6 °F 92.2 °F 66.2 °F 46% 30.04 in 10.0 mi NNE 6.9 mph 13.8 mph N/A   Mostly Cloudy
4:35 PM 89.6 °F 91.1 °F 64.4 °F 43% 30.04 in 10.0 mi NE 5.8 mph 15.0 mph N/A   Unknown
4:55 PM 87.8 °F 90.4 °F 66.2 °F 49% 30.04 in 10.0 mi Variable 5.8 mph - N/A   Clear
5:15 PM 86.0 °F 88.2 °F 66.2 °F 51% 30.05 in 10.0 mi North 8.1 mph - N/A   Clear
5:35 PM 87.8 °F 90.4 °F 66.2 °F 49% 30.05 in 10.0 mi NNW 6.9 mph - N/A   Clear
5:55 PM 87.8 °F 91.4 °F 68.0 °F 52% 30.05 in 9.0 mi Variable 5.8 mph - N/A   Scattered Clouds
6:15 PM 86.0 °F 88.2 °F 66.2 °F 51% 30.05 in 10.0 mi North 6.9 mph - N/A   Partly Cloudy
6:35 PM 86.0 °F 89.4 °F 68.0 °F 55% 30.05 in 9.0 mi North 5.8 mph - N/A   Clear
6:55 PM 84.2 °F 87.3 °F 68.0 °F 58% 30.06 in 10.0 mi North 4.6 mph - N/A   Clear
7:15 PM 82.4 °F 86.3 °F 69.8 °F 66% 30.06 in 10.0 mi North 4.6 mph - N/A   Clear
7:35 PM 80.6 °F 83.9 °F 69.8 °F 70% 30.05 in 10.0 mi NNE 3.5 mph - N/A   Clear
8:15 PM 77.0 °F - 69.8 °F 78% 30.03 in 10.0 mi NNE 4.6 mph - N/A   Clear
8:35 PM 77.0 °F - 69.8 °F 78% 30.04 in 10.0 mi NNE 4.6 mph - N/A   Clear
8:55 PM 75.2 °F - 68.0 °F 78% 30.04 in 10.0 mi NE 3.5 mph - N/A   Clear
9:15 PM 75.2 °F - 68.0 °F 78% 30.05 in 10.0 mi East 4.6 mph - N/A   Clear
9:35 PM 75.2 °F - 68.0 °F 78% 30.06 in 10.0 mi ENE 3.5 mph - N/A   Clear
9:55 PM 73.4 °F - 68.0 °F 83% 30.06 in 10.0 mi NE 3.5 mph - N/A   Clear
10:15 PM 73.4 °F - 68.0 °F 83% 30.07 in 10.0 mi Calm Calm - N/A   Clear
10:35 PM 73.4 °F - 68.0 °F 83% 30.07 in 10.0 mi Calm Calm - N/A   Clear
10:55 PM 73.4 °F - 68.0 °F 83% 30.08 in 10.0 mi Calm Calm - N/A   Mostly Cloudy
11:15 PM 73.4 °F - 68.0 °F 83% 30.08 in 10.0 mi Calm Calm - N/A   Scattered Clouds
11:35 PM 71.6 °F - 68.0 °F 88% 30.09 in 10.0 mi Calm Calm - N/A   Clear
11:55 PM 71.6 °F - 68.0 °F 88% 30.08 in 10.0 mi Calm Calm - N/A   Clear